EZY61JA EGKK-LGSK

Flight info

Callsign EZY61JA
Flight time 3h 4m
Altitude 37000
Route ODVIK Y311 DVR UL9 KONAN DCT KOK DCT RITAX DCT EDISA DCT KUNOD DCT GEDSO DCT GIMIX DCT GORPA DCT DEVUL DCT LIKVI DCT REMSO DCT MEDUX UM867 KOGAT DCT ERANA DCT TSL UL617 IBIDI
Aircraft A20N/M-SDE2E3FGHIJ1RWXYZ/LB1G1

Departure

Time 2026-05-05 07:13
Airport London Gatwick Airport (EGKK)

Arrival

Time 2026-05-05 10:17
Airport Skiathos Island National Airport (LGSK)
Time Latitude Longitude Altitude Speed Heading
2026-05-05 06:42 51.15358 -0.18629 199 ft 0 kts 77°
2026-05-05 07:00 51.15357 -0.18638 199 ft 2 kts 77°
2026-05-05 07:00 51.15354 -0.18661 199 ft 2 kts 77°
2026-05-05 07:00 51.15350 -0.18684 199 ft 2 kts 77°
2026-05-05 07:01 51.15347 -0.18707 199 ft 2 kts 77°
2026-05-05 07:01 51.15347 -0.18731 199 ft 2 kts 109°
2026-05-05 07:01 51.15355 -0.18752 199 ft 2 kts 135°
2026-05-05 07:01 51.15367 -0.18765 199 ft 1 kts 160°
2026-05-05 07:02 51.15373 -0.18768 199 ft 1 kts 172°
2026-05-05 07:02 51.15377 -0.18769 199 ft 0 kts 168°
2026-05-05 07:07 51.15374 -0.18768 199 ft 0 kts 168°
2026-05-05 07:07 51.15361 -0.18764 199 ft 3 kts 167°
2026-05-05 07:07 51.15323 -0.18749 199 ft 7 kts 166°
2026-05-05 07:08 51.15260 -0.18727 199 ft 11 kts 168°
2026-05-05 07:08 51.15173 -0.18699 200 ft 14 kts 173°
2026-05-05 07:08 51.15115 -0.18814 200 ft 16 kts 259°
2026-05-05 07:08 51.15090 -0.19007 200 ft 18 kts 258°
2026-05-05 07:09 51.15061 -0.19224 200 ft 20 kts 258°
2026-05-05 07:09 51.15029 -0.19459 200 ft 22 kts 257°
2026-05-05 07:09 51.14994 -0.19707 200 ft 23 kts 258°
2026-05-05 07:09 51.14957 -0.19971 200 ft 24 kts 258°
2026-05-05 07:10 51.14920 -0.20239 201 ft 25 kts 258°
2026-05-05 07:10 51.14882 -0.20517 201 ft 26 kts 257°
2026-05-05 07:10 51.14843 -0.20801 202 ft 26 kts 258°
2026-05-05 07:10 51.14805 -0.21087 203 ft 25 kts 255°
2026-05-05 07:11 51.14760 -0.21337 204 ft 14 kts 257°
2026-05-05 07:11 51.14685 -0.21392 204 ft 13 kts 152°
2026-05-05 07:11 51.14604 -0.21315 204 ft 14 kts 169°
2026-05-05 07:11 51.14523 -0.21237 204 ft 14 kts 119°
2026-05-05 07:12 51.14534 -0.21068 203 ft 28 kts 77°
2026-05-05 07:12 51.14629 -0.20371 201 ft 97 kts 77°
2026-05-05 07:12 51.14815 -0.19026 201 ft 152 kts 77°
2026-05-05 07:12 51.15052 -0.17226 511 ft 170 kts 76°
2026-05-05 07:13 51.15276 -0.15389 1151 ft 170 kts 76°
2026-05-05 07:13 51.15505 -0.13595 1870 ft 168 kts 73°
2026-05-05 07:13 51.15770 -0.11775 2350 ft 176 kts 73°
2026-05-05 07:13 51.16065 -0.09777 2710 ft 193 kts 73°
2026-05-05 07:14 51.16374 -0.07612 3039 ft 212 kts 73°
2026-05-05 07:14 51.16696 -0.05197 3393 ft 234 kts 77°
2026-05-05 07:14 51.16871 -0.02512 3852 ft 253 kts 85°
2026-05-05 07:14 51.16859 0.00314 4538 ft 261 kts 88°
2026-05-05 07:15 51.16805 0.03202 5350 ft 264 kts 89°
2026-05-05 07:15 51.16746 0.06116 6139 ft 267 kts 90°
2026-05-05 07:15 51.16687 0.09067 6928 ft 271 kts 90°
2026-05-05 07:15 51.16628 0.12052 7703 ft 274 kts 90°
2026-05-05 07:16 51.16569 0.15114 8473 ft 278 kts 90°
2026-05-05 07:16 51.16550 0.18192 9222 ft 282 kts 89°
2026-05-05 07:16 51.16562 0.21298 9958 ft 286 kts 89°
2026-05-05 07:16 51.16577 0.24492 10702 ft 289 kts 89°
2026-05-05 07:17 51.16587 0.27691 11429 ft 292 kts 89°
2026-05-05 07:17 51.16594 0.30905 12131 ft 296 kts 89°
2026-05-05 07:17 51.16599 0.34196 12850 ft 299 kts 89°
2026-05-05 07:17 51.16602 0.37496 13539 ft 302 kts 89°
2026-05-05 07:18 51.16605 0.40830 14226 ft 305 kts 89°
2026-05-05 07:18 51.16605 0.44208 14911 ft 307 kts 89°
2026-05-05 07:18 51.16606 0.47625 15575 ft 310 kts 90°
2026-05-05 07:18 51.16607 0.51058 16147 ft 316 kts 90°
2026-05-05 07:19 51.16607 0.54655 16431 ft 331 kts 90°
2026-05-05 07:19 51.16605 0.58411 16700 ft 346 kts 90°
2026-05-05 07:19 51.16603 0.62272 17140 ft 354 kts 90°
2026-05-05 07:19 51.16598 0.66189 17734 ft 357 kts 91°
2026-05-05 07:20 51.16592 0.70174 18354 ft 359 kts 91°
2026-05-05 07:20 51.16584 0.74140 18948 ft 361 kts 91°
2026-05-05 07:20 51.16574 0.78135 19503 ft 364 kts 91°
2026-05-05 07:20 51.16562 0.82202 20043 ft 368 kts 91°
2026-05-05 07:21 51.16549 0.86292 20567 ft 372 kts 91°
2026-05-05 07:21 51.16535 0.90446 21080 ft 375 kts 91°
2026-05-05 07:21 51.16518 0.94617 21573 ft 379 kts 91°
2026-05-05 07:21 51.16500 0.98799 22072 ft 382 kts 92°
2026-05-05 07:22 51.16481 1.03073 22583 ft 385 kts 92°
2026-05-05 07:22 51.16459 1.07314 23056 ft 388 kts 92°
2026-05-05 07:22 51.16435 1.11638 23545 ft 390 kts 92°
2026-05-05 07:22 51.16409 1.15936 24030 ft 393 kts 92°
2026-05-05 07:23 51.16381 1.20287 24459 ft 397 kts 92°
2026-05-05 07:23 51.16350 1.24734 24879 ft 400 kts 92°
2026-05-05 07:23 51.16318 1.29124 25280 ft 404 kts 92°
2026-05-05 07:23 51.16285 1.33610 25699 ft 407 kts 92°
2026-05-05 07:24 51.16165 1.38181 26086 ft 410 kts 95°
2026-05-05 07:24 51.15959 1.42736 26435 ft 413 kts 96°
2026-05-05 07:24 51.15743 1.47258 26797 ft 416 kts 96°
2026-05-05 07:24 51.15519 1.51862 27180 ft 419 kts 96°
2026-05-05 07:25 51.15292 1.56497 27527 ft 422 kts 96°
2026-05-05 07:25 51.15065 1.61132 27858 ft 425 kts 96°
2026-05-05 07:25 51.14830 1.65889 28195 ft 428 kts 97°
2026-05-05 07:25 51.14599 1.70560 28521 ft 430 kts 97°
2026-05-05 07:26 51.14359 1.75330 28867 ft 432 kts 97°
2026-05-05 07:26 51.14120 1.80078 29166 ft 435 kts 97°
2026-05-05 07:26 51.13874 1.84883 29473 ft 438 kts 97°
2026-05-05 07:26 51.13626 1.89679 29878 ft 437 kts 97°
2026-05-05 07:27 51.13376 1.94476 30304 ft 436 kts 97°
2026-05-05 07:27 51.13125 1.99273 30707 ft 436 kts 97°
2026-05-05 07:27 51.12872 2.04112 31078 ft 436 kts 97°
2026-05-05 07:27 51.12622 2.08905 31415 ft 436 kts 97°
2026-05-05 07:28 51.12371 2.13658 31753 ft 435 kts 97°
2026-05-05 07:28 51.12114 2.18454 32101 ft 435 kts 97°
2026-05-05 07:28 51.11855 2.23207 32435 ft 434 kts 98°
2026-05-05 07:28 51.11592 2.28009 32747 ft 434 kts 98°
2026-05-05 07:29 51.11328 2.32778 33050 ft 433 kts 98°
2026-05-05 07:29 51.11064 2.37496 33340 ft 433 kts 98°
2026-05-05 07:29 51.10795 2.42250 33578 ft 434 kts 98°
2026-05-05 07:29 51.10524 2.47020 33781 ft 435 kts 98°
2026-05-05 07:30 51.10251 2.51808 33989 ft 436 kts 99°
2026-05-05 07:30 51.09282 2.61343 34402 ft 434 kts 107°
2026-05-05 07:30 51.08519 2.66002 34601 ft 433 kts 111°
2026-05-05 07:31 51.07583 2.70547 34791 ft 431 kts 115°
2026-05-05 07:31 51.06471 2.74996 34915 ft 430 kts 119°
2026-05-05 07:31 51.03899 2.83588 34937 ft 428 kts 121°
2026-05-05 07:32 51.01302 2.92071 34935 ft 428 kts 122°
2026-05-05 07:32 50.98680 3.00626 34931 ft 428 kts 122°
2026-05-05 07:33 50.96071 3.09117 34926 ft 429 kts 122°
2026-05-05 07:33 50.93474 3.17546 34921 ft 428 kts 122°
2026-05-05 07:34 50.90853 3.26024 34918 ft 427 kts 122°
2026-05-05 07:34 50.88238 3.34412 34904 ft 426 kts 122°
2026-05-05 07:35 50.85603 3.42797 34912 ft 427 kts 122°
2026-05-05 07:35 50.82968 3.51206 34900 ft 427 kts 122°
2026-05-05 07:36 50.80331 3.59605 34903 ft 427 kts 122°
2026-05-05 07:36 50.77679 3.68038 34894 ft 428 kts 122°
2026-05-05 07:37 50.75038 3.76446 34891 ft 427 kts 122°
2026-05-05 07:37 50.72398 3.84804 34893 ft 426 kts 123°
2026-05-05 07:38 50.69744 3.93165 34889 ft 425 kts 123°
2026-05-05 07:38 50.67101 4.01456 34900 ft 426 kts 123°
2026-05-05 07:39 50.64436 4.09790 34892 ft 427 kts 123°
2026-05-05 07:39 50.61756 4.18142 34895 ft 427 kts 123°
2026-05-05 07:40 50.59073 4.26468 34886 ft 427 kts 123°
2026-05-05 07:40 50.56397 4.34755 34892 ft 427 kts 123°
2026-05-05 07:41 50.53691 4.43102 34893 ft 428 kts 123°
2026-05-05 07:41 50.50991 4.51401 34889 ft 429 kts 123°
2026-05-05 07:42 50.48280 4.59711 34888 ft 429 kts 123°
2026-05-05 07:42 50.45558 4.68032 34888 ft 429 kts 124°
2026-05-05 07:43 50.42813 4.76420 34881 ft 429 kts 124°
2026-05-05 07:43 50.40081 4.84725 34880 ft 429 kts 124°
2026-05-05 07:44 50.37350 4.92988 34880 ft 429 kts 123°
2026-05-05 07:44 50.34602 5.01275 34875 ft 429 kts 124°
2026-05-05 07:45 50.31854 5.09537 34874 ft 429 kts 124°
2026-05-05 07:45 50.29085 5.17824 34869 ft 430 kts 124°
2026-05-05 07:46 50.26317 5.26080 34861 ft 430 kts 124°
2026-05-05 07:46 50.23548 5.34320 34855 ft 429 kts 124°
2026-05-05 07:47 50.20777 5.42535 34858 ft 430 kts 124°
2026-05-05 07:47 50.17987 5.50778 34853 ft 430 kts 124°
2026-05-05 07:48 50.15207 5.58967 34849 ft 430 kts 124°
2026-05-05 07:48 50.12444 5.67076 34842 ft 429 kts 125°
2026-05-05 07:49 50.09645 5.75295 34839 ft 430 kts 125°
2026-05-05 07:49 50.06677 5.83413 34841 ft 426 kts 129°
2026-05-05 07:50 50.03476 5.91126 34847 ft 425 kts 130°
2026-05-05 07:50 50.00261 5.98835 34857 ft 427 kts 129°
2026-05-05 07:51 49.97035 6.06554 34861 ft 426 kts 130°
2026-05-05 07:51 49.93818 6.14220 34860 ft 426 kts 130°
2026-05-05 07:52 49.90572 6.21935 34864 ft 426 kts 130°
2026-05-05 07:52 49.87407 6.29402 34864 ft 426 kts 130°
2026-05-05 07:53 49.84139 6.37070 34870 ft 426 kts 130°
2026-05-05 07:53 49.80895 6.44700 34869 ft 425 kts 130°
2026-05-05 07:54 49.77651 6.52319 34871 ft 426 kts 130°
2026-05-05 07:54 49.74369 6.60003 34868 ft 427 kts 130°
2026-05-05 07:55 49.71114 6.67611 34869 ft 427 kts 130°
2026-05-05 07:55 49.67845 6.75264 34869 ft 426 kts 130°
2026-05-05 07:56 49.64573 6.82881 34864 ft 427 kts 130°
2026-05-05 07:56 49.61297 6.90476 34864 ft 428 kts 130°
2026-05-05 07:57 49.57997 6.98105 34863 ft 427 kts 130°
2026-05-05 07:57 49.54692 7.05720 34872 ft 427 kts 130°
2026-05-05 07:58 49.51419 7.13236 34874 ft 425 kts 130°
2026-05-05 07:58 49.48104 7.20832 34878 ft 426 kts 130°
2026-05-05 07:59 49.44819 7.28330 34881 ft 426 kts 130°
2026-05-05 07:59 49.41514 7.35853 34878 ft 426 kts 130°
2026-05-05 08:00 49.38205 7.43373 34876 ft 425 kts 130°
2026-05-05 08:00 49.34895 7.50868 34877 ft 424 kts 130°
2026-05-05 08:01 49.31605 7.58303 34874 ft 423 kts 130°
2026-05-05 08:01 49.28292 7.65761 34861 ft 423 kts 130°
2026-05-05 08:02 49.24983 7.73222 34855 ft 422 kts 130°
2026-05-05 08:02 49.21674 7.80654 34861 ft 422 kts 130°
2026-05-05 08:03 49.18368 7.88035 34865 ft 423 kts 130°
2026-05-05 08:03 49.15053 7.95420 34866 ft 422 kts 130°
2026-05-05 08:04 49.11731 8.02798 34868 ft 422 kts 130°
2026-05-05 08:04 49.08396 8.10182 34870 ft 422 kts 130°
2026-05-05 08:05 49.05066 8.17535 34871 ft 421 kts 130°
2026-05-05 08:05 49.01732 8.24876 34870 ft 421 kts 130°
2026-05-05 08:06 48.98392 8.32186 34873 ft 420 kts 131°
2026-05-05 08:06 48.94926 8.39351 34876 ft 420 kts 132°
2026-05-05 08:07 48.91455 8.46445 34878 ft 419 kts 132°
2026-05-05 08:07 48.87974 8.53527 34878 ft 419 kts 132°
2026-05-05 08:08 48.84484 8.60595 34877 ft 419 kts 132°
2026-05-05 08:08 48.81029 8.67615 34876 ft 419 kts 132°
2026-05-05 08:09 48.77558 8.74684 34875 ft 418 kts 132°
2026-05-05 08:09 48.74079 8.81746 34874 ft 418 kts 132°
2026-05-05 08:10 48.70605 8.88766 34869 ft 419 kts 132°
2026-05-05 08:10 48.67104 8.95822 34865 ft 419 kts 132°
2026-05-05 08:11 48.63577 9.02909 34866 ft 421 kts 132°
2026-05-05 08:11 48.60079 9.09923 34870 ft 420 kts 132°
2026-05-05 08:12 48.56559 9.16965 34870 ft 420 kts 132°
2026-05-05 08:12 48.53043 9.23977 34868 ft 420 kts 132°
2026-05-05 08:13 48.49513 9.30994 34867 ft 419 kts 132°
2026-05-05 08:13 48.46002 9.37960 34866 ft 419 kts 132°
2026-05-05 08:14 48.42479 9.44930 34865 ft 420 kts 132°
2026-05-05 08:14 48.38938 9.51919 34867 ft 421 kts 132°
2026-05-05 08:15 48.35404 9.58871 34866 ft 420 kts 131°
2026-05-05 08:15 48.31816 9.65785 34864 ft 420 kts 134°
2026-05-05 08:16 48.28127 9.72647 34867 ft 419 kts 134°
2026-05-05 08:16 48.24450 9.79467 34869 ft 419 kts 134°
2026-05-05 08:17 48.20798 9.86228 34869 ft 419 kts 134°
2026-05-05 08:17 48.17140 9.92985 34872 ft 418 kts 134°
2026-05-05 08:18 48.13478 9.99734 34873 ft 418 kts 134°
2026-05-05 08:18 48.09809 10.06479 34873 ft 418 kts 134°
2026-05-05 08:19 48.06132 10.13214 34876 ft 419 kts 134°
2026-05-05 08:19 48.02434 10.19974 34875 ft 420 kts 133°
2026-05-05 08:20 47.98728 10.26734 34873 ft 420 kts 133°
2026-05-05 08:20 47.95041 10.33441 34881 ft 421 kts 133°
2026-05-05 08:21 47.91330 10.40177 34880 ft 421 kts 133°
2026-05-05 08:21 47.87582 10.46938 34877 ft 421 kts 133°
2026-05-05 08:22 47.83845 10.53645 34884 ft 422 kts 133°
2026-05-05 08:22 47.80096 10.60382 34885 ft 423 kts 133°
2026-05-05 08:23 47.76395 10.67030 34887 ft 422 kts 134°
2026-05-05 08:23 47.72653 10.73766 34897 ft 423 kts 134°
2026-05-05 08:24 47.68913 10.80470 34907 ft 423 kts 134°
2026-05-05 08:24 47.65162 10.87166 34904 ft 423 kts 134°
2026-05-05 08:25 47.61403 10.93855 34912 ft 423 kts 134°
2026-05-05 08:25 47.57618 11.00576 34913 ft 424 kts 134°
2026-05-05 08:26 47.53861 11.07228 34929 ft 424 kts 134°
2026-05-05 08:26 47.50058 11.13942 34937 ft 425 kts 134°
2026-05-05 08:27 47.46265 11.20624 34942 ft 426 kts 134°
2026-05-05 08:27 47.42473 11.27289 34930 ft 426 kts 134°
2026-05-05 08:28 47.38650 11.33990 34937 ft 426 kts 133°
2026-05-05 08:28 47.34841 11.40654 34941 ft 426 kts 133°
2026-05-05 08:29 47.31012 11.47333 34951 ft 426 kts 133°
2026-05-05 08:30 47.25291 11.57282 34960 ft 426 kts 134°
2026-05-05 08:30 47.21456 11.63931 34972 ft 427 kts 134°
2026-05-05 08:31 47.17602 11.70619 34991 ft 426 kts 134°
2026-05-05 08:31 47.13766 11.77249 34990 ft 426 kts 134°
2026-05-05 08:32 47.10099 11.84103 34993 ft 428 kts 129°
2026-05-05 08:32 47.06979 11.91516 34992 ft 431 kts 122°
2026-05-05 08:33 47.04413 11.99499 34993 ft 435 kts 117°
2026-05-05 08:33 47.02034 12.07647 35009 ft 435 kts 117°
2026-05-05 08:34 46.99638 12.15808 34998 ft 435 kts 117°
2026-05-05 08:34 46.97242 12.23933 34997 ft 435 kts 117°
2026-05-05 08:35 46.94850 12.32015 34997 ft 433 kts 116°
2026-05-05 08:35 46.92459 12.40065 35002 ft 432 kts 116°
2026-05-05 08:36 46.90067 12.48089 35016 ft 430 kts 116°
2026-05-05 08:36 46.87682 12.55997 35019 ft 431 kts 116°
2026-05-05 08:37 46.85264 12.63987 35008 ft 429 kts 116°
2026-05-05 08:37 46.82867 12.71956 34995 ft 429 kts 117°
2026-05-05 08:38 46.80470 12.79911 34993 ft 427 kts 117°
2026-05-05 08:38 46.78070 12.87835 34999 ft 426 kts 116°
2026-05-05 08:39 46.75677 12.95720 35009 ft 425 kts 116°
2026-05-05 08:39 46.73294 13.03548 35003 ft 425 kts 116°
2026-05-05 08:40 46.70891 13.11407 34995 ft 425 kts 116°
2026-05-05 08:40 46.68488 13.19241 34993 ft 426 kts 116°
2026-05-05 08:41 46.66054 13.27156 34994 ft 426 kts 116°
2026-05-05 08:41 46.63646 13.34957 35000 ft 426 kts 116°
2026-05-05 08:42 46.61213 13.42816 35004 ft 426 kts 116°
2026-05-05 08:42 46.58780 13.50656 35005 ft 427 kts 116°
2026-05-05 08:43 46.56318 13.58562 35000 ft 429 kts 116°
2026-05-05 08:43 46.53849 13.66461 34994 ft 430 kts 117°
2026-05-05 08:44 46.51084 13.74143 34993 ft 428 kts 124°
2026-05-05 08:44 46.47900 13.81355 34995 ft 427 kts 125°
2026-05-05 08:45 46.44651 13.88617 34995 ft 427 kts 125°
2026-05-05 08:45 46.41429 13.95805 34998 ft 429 kts 125°
2026-05-05 08:46 46.38176 14.03055 34997 ft 429 kts 125°
2026-05-05 08:46 46.34903 14.10332 35004 ft 430 kts 125°
2026-05-05 08:47 46.31625 14.17601 35004 ft 430 kts 125°
2026-05-05 08:47 46.28366 14.24809 35004 ft 429 kts 125°
2026-05-05 08:48 46.25093 14.32025 35002 ft 429 kts 125°
2026-05-05 08:48 46.21829 14.39206 34996 ft 428 kts 125°
2026-05-05 08:49 46.18547 14.46405 34992 ft 429 kts 125°
2026-05-05 08:49 46.15266 14.53587 34991 ft 429 kts 124°
2026-05-05 08:50 46.11976 14.60771 35003 ft 430 kts 125°
2026-05-05 08:50 46.08684 14.67946 35006 ft 429 kts 125°
2026-05-05 08:51 46.05391 14.75132 35004 ft 429 kts 126°
2026-05-05 08:51 46.02099 14.82276 35005 ft 428 kts 126°
2026-05-05 08:52 45.98799 14.89405 35007 ft 428 kts 126°
2026-05-05 08:52 45.95504 14.96506 35002 ft 429 kts 126°
2026-05-05 08:53 45.92187 15.03638 35001 ft 430 kts 126°
2026-05-05 08:53 45.88861 15.10758 34996 ft 430 kts 126°
2026-05-05 08:54 45.85506 15.17880 34998 ft 430 kts 126°
2026-05-05 08:54 45.82169 15.24984 34995 ft 429 kts 126°
2026-05-05 08:55 45.78853 15.32035 34995 ft 429 kts 125°
2026-05-05 08:55 45.75280 15.38839 34997 ft 428 kts 131°
2026-05-05 08:56 45.71472 15.45382 34996 ft 429 kts 131°
2026-05-05 08:56 45.67652 15.51930 34995 ft 431 kts 131°
2026-05-05 08:57 45.63800 15.58527 34994 ft 432 kts 131°
2026-05-05 08:57 45.60016 15.64994 34996 ft 433 kts 131°
2026-05-05 08:58 45.56096 15.71709 34989 ft 433 kts 132°
2026-05-05 08:58 45.52251 15.78268 34987 ft 432 kts 132°
2026-05-05 08:59 45.48410 15.84795 34988 ft 433 kts 132°
2026-05-05 08:59 45.44527 15.91371 34983 ft 433 kts 131°
2026-05-05 09:00 45.40630 15.97957 34987 ft 435 kts 132°
2026-05-05 09:00 45.36725 16.04537 34989 ft 436 kts 131°
2026-05-05 09:01 45.32842 16.11069 34992 ft 435 kts 132°
2026-05-05 09:01 45.28937 16.17620 35002 ft 435 kts 132°
2026-05-05 09:02 45.25033 16.24155 35015 ft 434 kts 132°
2026-05-05 09:02 45.21144 16.30643 35006 ft 434 kts 132°
2026-05-05 09:03 45.17243 16.37142 35003 ft 434 kts 132°
2026-05-05 09:03 45.13336 16.43633 35001 ft 432 kts 132°
2026-05-05 09:04 45.09379 16.50000 35000 ft 432 kts 133°
2026-05-05 09:04 45.05373 16.56329 34997 ft 432 kts 133°
2026-05-05 09:05 45.01376 16.62642 34999 ft 431 kts 133°
2026-05-05 09:05 44.97369 16.68979 34997 ft 431 kts 134°
2026-05-05 09:06 44.93373 16.75301 35004 ft 431 kts 134°
2026-05-05 09:06 44.89389 16.81571 35013 ft 432 kts 134°
2026-05-05 09:07 44.85357 16.87853 35012 ft 432 kts 134°
2026-05-05 09:07 44.81338 16.94117 35022 ft 432 kts 134°
2026-05-05 09:08 44.77302 17.00414 35021 ft 433 kts 134°
2026-05-05 09:08 44.73285 17.06668 35026 ft 434 kts 134°
2026-05-05 09:09 44.69219 17.12986 35028 ft 435 kts 134°
2026-05-05 09:09 44.65147 17.19302 35042 ft 437 kts 134°
2026-05-05 09:10 44.61080 17.25592 35047 ft 437 kts 134°
2026-05-05 09:10 44.56989 17.31907 35062 ft 439 kts 134°
2026-05-05 09:11 44.52892 17.38219 35065 ft 439 kts 134°
2026-05-05 09:11 44.48771 17.44552 35069 ft 440 kts 134°
2026-05-05 09:12 44.44660 17.50855 35065 ft 441 kts 134°
2026-05-05 09:12 44.40523 17.57185 35060 ft 442 kts 134°
2026-05-05 09:13 44.36360 17.63539 35063 ft 444 kts 134°
2026-05-05 09:13 44.32194 17.69901 35061 ft 444 kts 135°
2026-05-05 09:14 44.28039 17.76238 35054 ft 445 kts 135°
2026-05-05 09:14 44.23847 17.82594 35059 ft 446 kts 135°
2026-05-05 09:15 44.19656 17.88933 35047 ft 446 kts 135°
2026-05-05 09:15 44.15448 17.95278 35042 ft 446 kts 135°
2026-05-05 09:16 44.11252 18.01592 35043 ft 447 kts 135°
2026-05-05 09:16 44.07059 18.07880 35049 ft 446 kts 134°
2026-05-05 09:17 44.02804 18.14246 35052 ft 448 kts 134°
2026-05-05 09:17 43.98557 18.20578 35053 ft 447 kts 135°
2026-05-05 09:18 43.94318 18.26889 35065 ft 449 kts 135°
2026-05-05 09:18 43.90036 18.33243 35070 ft 450 kts 135°
2026-05-05 09:19 43.85715 18.39604 35076 ft 450 kts 135°
2026-05-05 09:19 43.81440 18.45894 35084 ft 451 kts 135°
2026-05-05 09:20 43.77163 18.52192 35099 ft 452 kts 134°
2026-05-05 09:20 43.72866 18.58511 35103 ft 452 kts 134°
2026-05-05 09:21 43.68544 18.64858 35102 ft 453 kts 134°
2026-05-05 09:21 43.64232 18.71201 35097 ft 453 kts 135°
2026-05-05 09:22 43.59905 18.77543 35101 ft 454 kts 135°
2026-05-05 09:22 43.55573 18.83858 35109 ft 455 kts 135°
2026-05-05 09:23 43.51240 18.90155 35107 ft 455 kts 135°
2026-05-05 09:23 43.46865 18.96511 35118 ft 457 kts 135°
2026-05-05 09:24 43.42544 19.02940 35119 ft 458 kts 134°
2026-05-05 09:24 43.38249 19.09361 35121 ft 460 kts 134°
2026-05-05 09:25 43.33933 19.15782 35128 ft 460 kts 134°
2026-05-05 09:25 43.29586 19.22226 35130 ft 460 kts 134°
2026-05-05 09:26 43.25233 19.28659 35140 ft 461 kts 134°
2026-05-05 09:26 43.20858 19.35111 35140 ft 460 kts 134°
2026-05-05 09:27 43.16509 19.41511 35139 ft 461 kts 134°
2026-05-05 09:27 43.12139 19.47924 35138 ft 462 kts 134°
2026-05-05 09:28 43.07744 19.54362 35135 ft 463 kts 134°
2026-05-05 09:28 43.03363 19.60768 35128 ft 465 kts 134°
2026-05-05 09:29 42.99011 19.67117 35128 ft 465 kts 134°
2026-05-05 09:29 42.94601 19.73564 35129 ft 463 kts 134°
2026-05-05 09:30 42.90204 19.79956 35131 ft 461 kts 134°
2026-05-05 09:30 42.85779 19.86329 35135 ft 461 kts 134°
2026-05-05 09:31 42.81364 19.92683 35138 ft 461 kts 134°
2026-05-05 09:31 42.76985 19.98997 35138 ft 463 kts 134°
2026-05-05 09:32 42.72717 20.05542 35141 ft 463 kts 130°
2026-05-05 09:32 42.68622 20.12322 35138 ft 464 kts 129°
2026-05-05 09:33 42.64520 20.19104 35138 ft 463 kts 129°
2026-05-05 09:33 42.60434 20.25833 35137 ft 463 kts 129°
2026-05-05 09:34 42.56340 20.32552 35129 ft 463 kts 129°
2026-05-05 09:34 42.52232 20.39283 35125 ft 466 kts 129°
2026-05-05 09:35 42.48092 20.46049 35112 ft 466 kts 129°
2026-05-05 09:35 42.41867 20.56191 35115 ft 468 kts 129°
2026-05-05 09:36 42.37720 20.62929 35116 ft 467 kts 128°
2026-05-05 09:36 42.33545 20.69713 35109 ft 467 kts 129°
2026-05-05 09:37 42.29406 20.76431 35102 ft 467 kts 129°
2026-05-05 09:37 42.25225 20.83182 35112 ft 467 kts 129°
2026-05-05 09:38 42.21077 20.89857 35117 ft 467 kts 129°
2026-05-05 09:38 42.16896 20.96569 35120 ft 467 kts 129°
2026-05-05 09:39 42.12704 21.03277 35122 ft 467 kts 129°
2026-05-05 09:39 42.08196 21.09566 35123 ft 467 kts 136°
2026-05-05 09:40 42.03471 21.15550 35114 ft 469 kts 136°
2026-05-05 09:40 41.98701 21.21575 35109 ft 469 kts 136°
2026-05-05 09:41 41.93951 21.27576 35116 ft 468 kts 136°
2026-05-05 09:41 41.89218 21.33549 35114 ft 468 kts 136°
2026-05-05 09:42 41.84434 21.39540 35118 ft 467 kts 136°
2026-05-05 09:42 41.79695 21.45476 35124 ft 467 kts 135°
2026-05-05 09:43 41.74963 21.51409 35134 ft 468 kts 136°
2026-05-05 09:43 41.70225 21.57342 35137 ft 467 kts 136°
2026-05-05 09:44 41.65472 21.63278 35122 ft 467 kts 135°
2026-05-05 09:44 41.60709 21.69237 35113 ft 468 kts 136°
2026-05-05 09:45 41.55957 21.75174 35103 ft 467 kts 136°
2026-05-05 09:45 41.51220 21.81058 35097 ft 467 kts 136°
2026-05-05 09:46 41.46453 21.86965 35094 ft 468 kts 136°
2026-05-05 09:46 41.41693 21.92850 35097 ft 468 kts 136°
2026-05-05 09:47 41.36924 21.98732 35091 ft 469 kts 136°
2026-05-05 09:47 41.32127 22.04637 35091 ft 468 kts 136°
2026-05-05 09:48 41.27358 22.10495 35095 ft 468 kts 136°
2026-05-05 09:48 41.22592 22.16333 35101 ft 468 kts 136°
2026-05-05 09:49 41.17785 22.22212 35107 ft 468 kts 135°
2026-05-05 09:49 41.12849 22.27785 35111 ft 469 kts 139°
2026-05-05 09:50 41.07756 22.33254 35109 ft 468 kts 140°
2026-05-05 09:50 41.02724 22.38646 35099 ft 468 kts 140°
2026-05-05 09:51 40.97655 22.44075 35092 ft 469 kts 140°
2026-05-05 09:51 40.92599 22.49485 35077 ft 469 kts 140°
2026-05-05 09:52 40.87501 22.54918 35063 ft 468 kts 140°
2026-05-05 09:52 40.82420 22.60298 35060 ft 468 kts 140°
2026-05-05 09:53 40.77362 22.65666 34334 ft 473 kts 140°
2026-05-05 09:53 40.74764 22.68437 33359 ft 481 kts 140°
2026-05-05 09:53 40.72169 22.71205 32605 ft 482 kts 140°
2026-05-05 09:54 40.69569 22.73970 31943 ft 482 kts 140°
2026-05-05 09:54 40.66959 22.76738 31238 ft 482 kts 140°
2026-05-05 09:54 40.64349 22.79499 30503 ft 482 kts 140°
2026-05-05 09:54 40.61744 22.82249 29761 ft 483 kts 140°
2026-05-05 09:55 40.59114 22.85025 28978 ft 484 kts 140°
2026-05-05 09:55 40.56512 22.87766 28202 ft 485 kts 140°
2026-05-05 09:55 40.53859 22.90558 27427 ft 485 kts 140°
2026-05-05 09:55 40.51249 22.93302 26871 ft 479 kts 140°
2026-05-05 09:56 40.48640 22.96041 26371 ft 473 kts 140°
2026-05-05 09:56 40.45974 22.98513 25799 ft 470 kts 148°
2026-05-05 09:56 40.43131 23.00481 25250 ft 465 kts 156°
2026-05-05 09:56 40.40118 23.02070 24687 ft 461 kts 159°
2026-05-05 09:57 40.37134 23.03524 24059 ft 459 kts 160°
2026-05-05 09:57 40.34145 23.04963 23475 ft 457 kts 160°
2026-05-05 09:57 40.31180 23.06403 22961 ft 452 kts 159°
2026-05-05 09:57 40.28245 23.07843 22512 ft 447 kts 159°
2026-05-05 09:58 40.25352 23.09270 22064 ft 441 kts 159°
2026-05-05 09:58 40.22500 23.10682 21634 ft 436 kts 159°
2026-05-05 09:58 40.19688 23.12073 21198 ft 431 kts 159°
2026-05-05 09:58 40.16909 23.13449 20761 ft 426 kts 159°
2026-05-05 09:59 40.14167 23.14805 20336 ft 421 kts 159°
2026-05-05 09:59 40.11444 23.16151 19917 ft 416 kts 158°
2026-05-05 09:59 40.08754 23.17480 19481 ft 412 kts 158°
2026-05-05 09:59 40.06088 23.18796 19049 ft 408 kts 158°
2026-05-05 10:00 40.03453 23.20096 18631 ft 404 kts 158°
2026-05-05 10:00 40.00842 23.21381 18221 ft 400 kts 158°
2026-05-05 10:00 39.98268 23.22648 17805 ft 396 kts 158°
2026-05-05 10:00 39.95701 23.23911 17382 ft 392 kts 158°
2026-05-05 10:01 39.93142 23.25167 16959 ft 389 kts 158°
2026-05-05 10:01 39.90635 23.26398 16536 ft 386 kts 158°
2026-05-05 10:01 39.88135 23.27623 16109 ft 383 kts 158°
2026-05-05 10:01 39.85640 23.28840 15692 ft 379 kts 157°
2026-05-05 10:02 39.83172 23.30044 15281 ft 375 kts 157°
2026-05-05 10:02 39.80760 23.31222 14868 ft 371 kts 157°
2026-05-05 10:02 39.78363 23.32395 14457 ft 368 kts 157°
2026-05-05 10:02 39.75959 23.33571 14044 ft 365 kts 157°
2026-05-05 10:03 39.73604 23.34722 13645 ft 362 kts 157°
2026-05-05 10:03 39.71258 23.35868 13241 ft 360 kts 157°
2026-05-05 10:03 39.68935 23.37001 12840 ft 357 kts 157°
2026-05-05 10:03 39.66629 23.38124 12434 ft 354 kts 157°
2026-05-05 10:04 39.64313 23.39251 12022 ft 351 kts 157°
2026-05-05 10:04 39.62054 23.40349 11617 ft 349 kts 157°
2026-05-05 10:04 39.59784 23.41453 11210 ft 346 kts 157°
2026-05-05 10:04 39.57532 23.42546 10813 ft 343 kts 157°
2026-05-05 10:05 39.55313 23.43623 10416 ft 341 kts 157°
2026-05-05 10:05 39.53133 23.44680 10194 ft 331 kts 157°
2026-05-05 10:05 39.51010 23.45706 10136 ft 316 kts 157°
2026-05-05 10:05 39.48989 23.46682 10073 ft 302 kts 156°
2026-05-05 10:06 39.47045 23.47625 9753 ft 299 kts 157°
2026-05-05 10:06 39.45124 23.48555 9425 ft 297 kts 157°
2026-05-05 10:06 39.43176 23.49500 9093 ft 294 kts 157°
2026-05-05 10:06 39.41272 23.50421 8777 ft 291 kts 157°
2026-05-05 10:07 39.39405 23.51324 8468 ft 288 kts 157°
2026-05-05 10:07 39.37544 23.52225 8182 ft 285 kts 157°
2026-05-05 10:07 39.35678 23.53126 7888 ft 283 kts 157°
2026-05-05 10:07 39.33847 23.54011 7573 ft 281 kts 158°
2026-05-05 10:08 39.32035 23.54887 7299 ft 278 kts 158°
2026-05-05 10:08 39.30231 23.55758 7001 ft 276 kts 158°
2026-05-05 10:08 39.28433 23.56625 6710 ft 274 kts 158°
2026-05-05 10:08 39.26653 23.57481 6406 ft 272 kts 158°
2026-05-05 10:09 39.24877 23.58337 6130 ft 270 kts 158°
2026-05-05 10:09 39.23120 23.59183 5850 ft 269 kts 158°
2026-05-05 10:09 39.21368 23.60027 5570 ft 267 kts 158°
2026-05-05 10:09 39.19619 23.60866 5287 ft 266 kts 160°
2026-05-05 10:10 39.17792 23.61240 4939 ft 272 kts 188°
2026-05-05 10:10 39.16020 23.60449 4601 ft 268 kts 209°
2026-05-05 10:10 39.14404 23.59332 4263 ft 267 kts 210°
2026-05-05 10:10 39.12766 23.58205 3910 ft 263 kts 209°
2026-05-05 10:11 39.11165 23.57129 3561 ft 252 kts 209°
2026-05-05 10:11 39.09640 23.56121 3224 ft 247 kts 209°
2026-05-05 10:11 39.08118 23.55121 2886 ft 245 kts 209°
2026-05-05 10:11 39.06590 23.54120 2549 ft 245 kts 208°
2026-05-05 10:12 39.05084 23.53136 2213 ft 245 kts 208°
2026-05-05 10:12 39.03579 23.52154 2001 ft 239 kts 208°
2026-05-05 10:12 39.02255 23.51009 1966 ft 225 kts 233°
2026-05-05 10:12 39.01764 23.49161 1965 ft 218 kts 276°
2026-05-05 10:13 39.02301 23.47401 1973 ft 217 kts 311°
2026-05-05 10:13 39.03546 23.46346 1971 ft 210 kts 346°
2026-05-05 10:13 39.04929 23.46355 1989 ft 194 kts 11°
2026-05-05 10:13 39.06192 23.46789 2047 ft 180 kts 14°
2026-05-05 10:14 39.07335 23.47201 1999 ft 157 kts 13°
2026-05-05 10:14 39.08325 23.47549 1953 ft 144 kts 13°
2026-05-05 10:14 39.09277 23.47895 1669 ft 140 kts
2026-05-05 10:14 39.10236 23.47940 1454 ft 138 kts 352°
2026-05-05 10:15 39.11201 23.47780 1294 ft 139 kts 353°
2026-05-05 10:15 39.12164 23.47893 1080 ft 141 kts 13°
2026-05-05 10:15 39.13074 23.48278 824 ft 137 kts 18°
2026-05-05 10:15 39.13978 23.48698 636 ft 137 kts 16°
2026-05-05 10:16 39.14883 23.49104 458 ft 137 kts 17°
2026-05-05 10:16 39.15787 23.49508 294 ft 137 kts 16°
2026-05-05 10:16 39.16688 23.49906 105 ft 136 kts 17°
2026-05-05 10:16 39.17553 23.50288 35 ft 112 kts 19°
2026-05-05 10:17 39.17920 23.50453 61 ft 7 kts
2026-05-05 10:17 39.17931 23.50401 63 ft 7 kts 245°
2026-05-05 10:17 39.17910 23.50343 63 ft 7 kts 239°
2026-05-05 10:17 39.17875 23.50318 61 ft 6 kts 198°
2026-05-05 10:18 39.17858 23.50301 60 ft 3 kts 263°
2026-05-05 10:18 39.17864 23.50274 60 ft 2 kts 287°
2026-05-05 10:18 39.17866 23.50265 61 ft 0 kts 287°
2026-05-05 10:18 39.17868 23.50258 61 ft 0 kts 288°
2026-05-05 10:19 39.17874 23.50235 62 ft 4 kts 288°
2026-05-05 10:19 39.17877 23.50222 63 ft 1 kts 288°
2026-05-05 10:19 39.17877 23.50220 63 ft 0 kts 288°